Погода в Ивайловграде

Болгария     41°31′39″N   26°07′28″E
темп.,
°C
ветер,
м/с
пор.,
м/с
влажн.,
%
обл.,
%
осадки,
мм/ч
давл.,
гПа
погр.,
м
28 сентября, вт
вт2800:00+15юв22645 0.0 101917
03:00+14юв11733 0.0 101911
06:00+13всв118342 0.0 101911
09:00+16всв247319 0.0 1019490
12:00+20всв445385 0.0 10191098
15:00+23всв44406 0.0 10171572
18:00+22всв443970 0.0 10171843
21:00+16в5860100 0.0 1020571
29 сентября, ср
ср2900:00+14всв3572100 0.0 1021371
03:00+14св3571100 0.0 1021659
06:00+12с238715 0.0 102265
09:00+14ссв477129 0.0 1022731
12:00+16ссв675830 0.0 10231018
15:00+20св674266 0.0 10211739
18:00+18св775033 0.0 10221418
21:00+13всв496111 0.0 1024311
30 сентября, чт
чт3000:00+11с33766 0.0 102458
03:00+10ссз33905 0.0 102459
06:00+9сз34935 0.0 102582
09:00+12с497129 0.0 1025568
12:00+15св7860100 0.1 10251332
15:00+19ссв7846100 0.2 10231983
18:00+17св684661 0.0 10231629
21:00+13всв5106823 0.0 1025613
1 октября, пт
пт100:00+10ссз228498 0.0 102627
03:00+9ссз369128 0.0 1026115
06:00+8ссз3990100 0.0 1026254
09:00+12с5106198 0.0 1027606
12:00+15ссв794799 0.0 10261378
15:00+15св7949100 0.0 10251453
18:00+15св7950100 0.0 10251487
21:00+12св51165100 0.0 1026506
2 октября, сб
сб200:00+11с4973100 0.0 1026316
03:00+12с4106698 0.0 1025568
06:00+12с4106399 0.0 1024525
09:00+12с596498 0.1 1024662
12:00+13ссв696492 0.1 1024927
15:00+15св6851100 0.1 10221292
18:00+15св78505 0.0 10221235
21:00+11св39765 0.0 1023207